Regional Weather Roundup
Issued by NWS

Home | Current Version | Previous Version | Text Only | Print | Product List | Glossary Off
Versions: 1 2 3 4 5 6 7 8 9 10 11 12 13 14 15 16 17 18 19 20 21 22 23 24 25 26 27 28 29 30 31 32 33 34 35 36 37 38 39 40 41 42 43 44 45 46 47 48 49 50

000
ASUS44 KMEG 170100
RWRTN
TENNESSEE HOURLY STATE WEATHER ROUNDUP
NATIONAL WEATHER SERVICE MEMPHIS TN
800 PM CDT TUE SEP 16 2014

TNZ002-004-019-021-049-052-054-088>092-170200-
WEST TENNESSEE

CITY           SKY/WX    TMP DP  RH WIND       PRES   REMARKS
MEMPHIS INTL   MOCLDY    74  66  76 NE6       30.04R
NWS MEMPHIS      N/A     71 N/A N/A MISG        N/A
JACKSON        MOCLDY    66  61  84 NE5       30.05S
DYERSBURG      CLOUDY    66  52  59 N7        30.07S
UNION CITY     CLOUDY    64  57  77 N5        30.07S
PARIS          CLOUDY    63  55  77 NE3       30.08R
SAVANNAH       CLEAR     68  64  88 CALM      30.06R
$$

TNZ008-025-027-028-033-062-065-066-170200-
NORTH MIDDLE TENNESSEE

CITY           SKY/WX    TMP DP  RH WIND       PRES   REMARKS
NASHVILLE      PTCLDY    66  59  78 N6        30.06R
CLARKSVILLE    CLEAR     59  53  80 N6        30.07R
COOKEVILLE       N/A     63  63 100 CALM      30.06R VSB 1
CROSSVILLE     PTCLDY    63  59  87 CALM      30.08S
$$

TNZ061-075-076-078-094-096-097-170200-
SOUTH MIDDLE TENNESSEE

CITY           SKY/WX    TMP DP  RH WIND       PRES   REMARKS
SHELBYVILLE    CLOUDY    66  64  94 NE3       30.07R
$$

TNZ017-018-042-046-047-170200-
NORTHEAST TENNESSEE

CITY           SKY/WX    TMP DP  RH WIND       PRES   REMARKS
TRI CITIES     MOCLDY    69  59  70 W5        30.03R
ELIZABETHTON   CLOUDY    64  61  88 CALM      30.04R
$$

TNZ012-013-036-069-073-074-170200-
CENTRAL EAST TENNESSEE

CITY           SKY/WX    TMP DP  RH WIND       PRES   REMARKS
KNOXVILLE      CLOUDY    70  63  78 N8        30.02R
OAK RIDGE      MOCLDY    68  63  84 CALM      30.05R
GATLINBURG     MOCLDY    70  64  83 N5        30.03R
$$

TNZ083-085-099-170200-
SOUTHEAST TENNESSEE

CITY           SKY/WX    TMP DP  RH WIND       PRES   REMARKS
CHATTANOOGA    PTCLDY    75  66  73 N12       30.01R
$$

SKY/WX REPORTED AS FAIR MEANS FEW OR NO CLOUDS BELOW
12 THOUSAND FEET.




USA.gov is the U.S. government's official web portal to all federal, state and local government web resources and services.